Find Starlink 30790

NORAD ID: 58127 Int'l Des: 2023-162 Owner: SPXS Country: US Constellation: starlink operational
LEOCIRCULAR

Current View

Loading 3D Globe...

About Starlink 30790

Starlink 30790 (NORAD 58127) is a starlink constellation satellite (v2 mini) launched Oct 22, 2023 by SPXS of US. It operates in LEO, CIRCULAR orbit with a mass of 730.00 kg.

Upcoming Passes

Passes for default location (London). Set your location on the main map for personalized predictions.

Altitude History

Loading altitude history...

Two-Line Element Set

1 58127U 23162K 26237.52053575 .00029121 00000-0 12014-2 0 9994
2 58127 42.9968 267.0700 0020146 44.0754 316.1698 15.23343566158031
Epoch: Aug 25, 2026 • Age: 14 hours

Current Status

Altitude 485.6 km
Apogee / Perigee N/A
Velocity 7.64 km/s
Sub-Earth Point 40.56°N, 49.32°W
Launch Date Oct 22, 2023
Age 2.8 years
Type internet

Technical Details

Classification Payload
Mass 730.00 kg
Dry Mass 700.00 kg
Total Mass 730.00 kg
Length 0.30 m
Diameter 4.10 m
Span 29.00 m
Shape Box + pan
Manufacturer SPXS
Bus Type Starlink V2M
Phase Status In Orbit
Owner/State SPXS/US

Most Searched